Location: ?ern� Novina
(50.6762°N, 14.8696°E)
Time: 13:53:30
(UTC+00:00)

Cosmos 1515 - Pass Details

Date: 03 March 2021
Orbit: 504 x 516 km, 82.5° (Epoch: 11 April)

Event Time Altitude Azimuth Distance (km) Brightness Sun altitude
Rises 17:53:51 0° 346° (NNW) 2,648 7.5 -11.6°
Reaches altitude 10° 17:56:01 10° 343° (NNW) 1,755 6.7 -12.0°
Maximum altitude 17:59:48 60° 264° (W) 593 4.3 -12.6°
Drops below altitude 10° 18:03:33 10° 184° (S) 1,733 6.3 -13.1°
Sets 18:05:41 0° 181° (S) 2,613 7.2 -13.5°
